Location: Casilda
(33.0440°S, 61.1680°W)
Time: 08:40:58
(UTC-03:00)

ISS - Pass Details

Date: 09 December 2018
Orbit: 401 x 408 km, 51.6° (Epoch: 16 December)

Event Time Altitude Azimuth Distance (km) Brightness Sun altitude
Exits shadow 02:37:28 11° 194° (SSW) 1,427 -0.5 -29.2°
Drops below altitude 10° 02:37:55 10° 186° (S) 1,485 -0.3 -29.2°
Sets 02:41:13 0° 152° (SSE) 2,364 1.3 -28.9°
